Flag Weather past 2 weeks in Nagano, Japan

Now
52 °F

Cool.


Feels Like: 46 °F
Forecast: 35 / 55 °F
Wind: 17 mph from West

Location: Nagano

Current Time: Nov 26, 2014 at 11:10:04 AM

Latest Report: Nov 26, 2014 at 10:00 AM


Visibility: N/A

Pressure: 29.95 "Hg

Humidity: 67%

Dew point: 41 °F

Location of NaganoLocation

Historic Weather in Nagano — Graph

°F

Nagano temperature yesterday

Maximum temperature yesterday: 50 °F (at 11:00 PM)
Minimum temperature yesterday: 45 °F (at 7:00 AM)
Average temperature yesterday: 46 °F

Past Weeks' High & Low Weather Summary

 TemperatureHumidityPressure
High62 °F (Nov 22, 2:00 PM)96% (Nov 17, 6:00 AM)30.42 "Hg (Nov 17, 6:00 AM)
Low30 °F (Nov 21, 6:00 AM)29% (Nov 14, 1:00 PM)29.59 "Hg (Nov 12, 3:00 PM)
Average44 °F75%30.13 "Hg
* Reported Nov 11 9:00 AM — Nov 26 9:00 AM, Nagano, Weather by CustomWeather, © 2014

Note: Actual official high and low records may vary slightly from our data, if they occured in-between our weather recording intervals... More about our weather records

Advertising

Nagano weather history for previous 24 hours

 ConditionsComfort  
Time TempWeatherWind HumidityBarometerVisibility
9:00 AM
Nov 26
50 °FOvercast.23 mph70%29.96 "Hg12 mi
8:00 AM48 °FCool.16 mph76%29.98 "HgN/A
7:00 AM47 °FCool.16 mph78%29.99 "HgN/A
6:00 AM48 °FCool.13 mph76%29.97 "HgN/A
5:00 AM49 °FCool.13 mph77%29.95 "HgN/A
4:00 AM50 °FCool.14 mph73%29.94 "HgN/A
3:00 AM51 °FOvercast.9 mph70%29.92 "Hg9 mi
2:00 AM50 °FCool.12 mph73%29.93 "HgN/A
1:00 AM50 °FCool.13 mph70%29.93 "HgN/A
12:00 AM50 °FCool.14 mph72%29.94 "HgN/A
11:00 PM
Nov 25
50 °FCool.9 mph76%29.95 "HgN/A
10:00 PM48 °FCool.9 mph83%29.96 "HgN/A
9:00 PM46 °FOvercast.1 mph94%29.98 "Hg6 mi
8:00 PM46 °FCool.2 mph94%29.98 "HgN/A
7:00 PM46 °FCool.5 mph92%29.98 "HgN/A
6:00 PM46 °FCool.2 mph93%29.99 "HgN/A
5:00 PM46 °FCool.1 mph93%29.98 "HgN/A
4:00 PM46 °FCool.3 mph94%29.97 "HgN/A
3:00 PM47 °FLight rain. Overcast.2 mph96%29.98 "Hg5 mi
2:00 PM47 °FCool.1 mph95%29.98 "HgN/A
1:00 PM46 °FCool.1 mph94%29.99 "HgN/A
12:00 PM46 °FCool.3 mph95%30.00 "HgN/A
11:00 AM46 °FCool.1 mph95%30.01 "HgN/A
Weather by CustomWeather, © 2014

See weather overviewHow to use our weather pages